GW5818 Weather Reports


time (UTC)temp
F
wind
direction
speed
knots
gust
knots
rain 1hr
in
rain 24hr
in
rain mn
in
humidity
%
barometer
mb
20260506013020 61 46 0.0 1.7 0.00 0.02 0.02 91 1008.3
20260506011551 61 46 0.0 1.7 0.00 0.02 0.02 91 1008.2
20260506010020 61 150 0.0 1.7 0.00 0.02 0.02 90 1008.0
20260506004517 62 173 0.0 0.0 0.00 0.02 0.02 90 1007.9
20260506001519 62 117 0.0 0.0 0.02 0.02 0.02 87 1007.6
20260506000042 63 117 0.0 1.7 0.02 0.02 0.02 86 1007.8
20260505234537 65 71 0.9 1.7 0.02 0.02 0.02 79 1007.5
20260505230046 76 217 1.7 8.7 0.00 0.00 0.00 43 1005.0
20260505224534 77 182 0.9 6.1 0.00 0.00 0.00 43 1005.1
20260505221504 79 224 1.7 11.3 0.00 0.00 0.00 40 1004.5
20260505220005 80 258 1.7 11.3 0.00 0.00 0.00 33 1004.3
20260505214514 80 193 0.9 11.3 0.00 0.00 0.00 32 1004.4
20260505213012 80 194 2.6 7.8 0.00 0.00 0.00 33 1004.4
20260505211526 81 180 1.7 7.8 0.00 0.00 0.00 33 1004.0
20260505210007 80 317 0.9 7.0 0.00 0.00 0.00 34 1003.9
20260505204508 81 155 1.7 9.6 0.00 0.00 0.00 33 1004.2
20260505203015 82 158 3.5 20.0 0.00 0.00 0.00 32 1004.1
20260505194506 81 311 2.6 11.3 0.00 0.00 0.00 31 1004.5
20260505193015 80 190 6.1 18.2 0.00 0.00 0.00 32 1004.9
20260505191516 81 259 3.5 12.2 0.00 0.00 0.00 33 1004.8
20260505190019 81 173 4.3 13.0 0.00 0.00 0.00 31 1005.1
20260505184525 81 236 5.2 14.8 0.00 0.00 0.00 31 1004.9
20260505183010 81 208 6.1 13.9 0.00 0.00 0.00 31 1005.3
20260505181515 81 192 2.6 13.0 0.00 0.00 0.00 33 1005.3
20260505180018 82 212 3.5 12.2 0.00 0.00 0.00 34 1005.6
20260505174521 81 281 4.3 13.0 0.00 0.00 0.00 31 1005.5
20260505173008 81 243 1.7 12.2 0.00 0.00 0.00 35 1005.7
20260505171511 81 271 3.5 15.6 0.00 0.00 0.00 34 1005.9
20260505170021 80 225 4.3 19.1 0.00 0.00 0.00 35 1006.1
20260505164518 79 252 2.6 10.4 0.00 0.00 0.00 36 1006.2
20260505163024 78 296 1.7 7.8 0.00 0.00 0.00 41 1006.5
20260505153019 78 130 0.9 3.5 0.00 0.00 0.00 43 1007.2
20260505151525 77 184 1.7 7.0 0.00 0.00 0.00 45 1007.4
20260505124554 52 0.0 0.0 0.00 0.00 0.00 80 1009.2
20260505124542 51 64 0.0 0.0 0.00 0.00 0.00 81 1009.1
20260505124458 46 28 0.0 1.7 0.00 0.00 0.00 88 1009.5
20260505124448 45 25 0.0 0.0 0.00 0.00 0.00 90 1009.4
20260505124445 44 25 0.0 1.7 0.00 0.00 0.00 91 1009.3
20260505124437 43 25 0.0 1.7 0.00 0.00 0.00 90 1009.2
20260505124430 43 25 0.0 0.0 0.00 0.00 0.00 91 1009.2
20260505124423 43 25 0.0 1.7 0.00 0.00 0.00 91 1009.0
20260505124419 43 351 0.0 1.7 0.00 0.00 0.00 91 1008.9
20260505124415 43 351 0.0 1.7 0.00 0.00 0.00 90 1008.5
20260505124405 43 338 0.0 1.7 0.00 0.00 0.00 90 1008.5
20260505124357 43 338 0.0 0.0 0.00 0.00 0.00 89 1008.6
20260505124347 44 338 0.0 0.0 0.00 0.00 0.00 89 1008.6
20260505124342 44 338 0.0 1.7 0.00 0.00 0.00 89 1008.7
20260505124337 44 83 0.0 0.0 0.00 0.00 0.00 88 1008.8
20260505124330 45 83 0.0 0.0 0.00 0.00 0.00 88 1009.1
20260505124323 45 83 0.0 0.0 0.00 0.00 0.00 87 1008.9
20260505124314 45 83 0.0 0.0 0.00 0.00 0.00 87 1008.9
20260505124310 46 83 0.0 0.0 0.00 0.00 0.00 86 1008.9
20260505124304 46 83 0.0 0.0 0.00 0.00 0.00 86 1008.7
20260505124256 46 360 0.0 0.9 0.00 0.00 0.00 85 1008.9
20260505124249 46 360 0.0 1.7 0.00 0.00 0.00 84 1008.9
20260505124244 47 360 0.0 1.7 0.00 0.00 0.00 83 1008.9
20260505124235 47 360 0.0 1.7 0.00 0.00 0.00 82 1009.1
20260505124231 48 360 0.0 1.7 0.00 0.00 0.00 81 1009.1
20260505124225 48 360 0.0 1.7 0.00 0.00 0.00 80 1009.2
20260505124213 48 360 0.0 0.9 0.00 0.00 0.00 79 1009.4
20260505124210 49 360 0.0 1.7 0.00 0.00 0.00 78 1009.4
20260505124204 49 360 0.0 1.7 0.00 0.00 0.00 1009.3
20260505124155 50 360 0.0 0.9 0.00 0.00 0.00 76 1009.5
20260505124149 50 360 0.0 1.7 0.00 0.00 0.00 75 1009.3
20260505124142 51 336 0.0 1.7 0.00 0.00 0.00 74 1009.3
20260505124133 51 322 0.0 1.7 0.00 0.00 0.00 74 1009.3
20260505124127 51 333 0.0 0.9 0.00 0.00 0.00 72 1009.2
20260505124121 52 329 0.0 0.0 0.00 0.00 0.00 70 1009.1
20260505124113 53 329 0.0 0.0 0.00 0.00 0.00 67 1009.0
20260505124108 54 331 0.0 1.7 0.00 0.00 0.00 66 1009.0
20260505124100 55 151 0.0 2.6 0.00 0.00 0.00 63 1008.9
20260505124056 56 329 0.0 1.7 0.00 0.00 0.00 62 1008.9
20260505124047 57 304 0.9 2.6 0.00 0.00 0.00 58 1008.8
20260505020024 59 132 0.9 2.6 0.00 0.00 0.00 56 1008.5
20260505014526 59 221 0.9 4.3 0.00 0.00 0.00 55 1008.4